Home   Weather   Santa Cruz de Tenerife   Past weeks

Flag for Spain Past Weather in Santa Cruz de Tenerife, Canary Islands, Spain — Yesterday and Last 2 Weeks

Now
54 °F

Partly cloudy.


Feels Like: 49 °F
Forecast: 60 / 67 °F
Wind: 14 mph from Northwest

Location: Tenerife / Los Rodeos

Current Time: Jan 21, 2017 at 4:47:01 am

Latest Report: Jan 21, 2017 at 4:00 am


Visibility: N/A

Pressure: 30.15 "Hg

Humidity: 94%

Dew Point: 52 °F

Location of Santa Cruz de TenerifeLocation

Past Weather in Santa Cruz de Tenerife — Graph

°F

Santa Cruz de Tenerife Temperature Yesterday

Maximum temperature yesterday: 61 °F (at 12:30 pm)
Minimum temperature yesterday: 48 °F (at 2:30 am)
Average temperature yesterday: 54 °F

High & Low Weather Summary for the Past Weeks

 TemperatureHumidityPressure
High66 °F (Jan 8, 4:00 pm)100% (Jan 10, 4:00 am)30.33 "Hg (Jan 10, 4:00 am)
Low48 °F (Jan 10, 8:00 am)14% (Jan 6, 11:00 pm)30.01 "Hg (Jan 6, 2:00 pm)
Average56 °F76%30.17 "Hg
* Reported Jan 6 3:00 am — Jan 21 3:30 am, Santa Cruz de Tenerife, Weather by CustomWeather, © 2017

Note: Actual official high and low records may vary slightly from our data, if they occured in-between our weather recording intervals... More about our weather records

Advertising

Santa Cruz de Tenerife Weather History for the Previous 24 Hours

Scroll right to see more
 ConditionsComfort  
Time TempWeatherWind HumidityBarometerVisibility
3:30 am
Sat, Jan 21
54 °FLight rain. Passing clouds.13 mph94%30.18 "HgN/A
3:00 am54 °FMostly cloudy.14 mph94%30.18 "HgN/A
2:30 am54 °FMostly cloudy.12 mph94%30.18 "HgN/A
2:00 am54 °FMostly cloudy.14 mph94%30.18 "HgN/A
1:30 am52 °FPassing clouds.14 mph100%30.18 "HgN/A
1:00 am54 °FPassing clouds.15 mph94%30.18 "HgN/A
12:30 am54 °FLight rain. Mostly cloudy.14 mph94%30.18 "HgN/A
12:00 am52 °FRain. Mostly cloudy.14 mph100%30.21 "Hg2 mi
11:30 pm
Fri, Jan 20
54 °FPassing clouds.14 mph88%30.21 "HgN/A
11:00 pm54 °FPassing clouds.14 mph88%30.21 "HgN/A
10:30 pm54 °FPassing clouds.13 mph88%30.21 "HgN/A
10:00 pm54 °FPassing clouds.14 mph88%30.21 "HgN/A
9:30 pm52 °FPassing clouds.10 mph88%30.18 "HgN/A
9:00 pm52 °FPassing clouds.14 mph88%30.18 "HgN/A
8:30 pm52 °FPassing clouds.10 mph94%30.18 "HgN/A
8:00 pm54 °FPassing clouds.13 mph94%30.18 "HgN/A
7:30 pm54 °FPassing clouds.15 mph88%30.18 "HgN/A
7:00 pm54 °FPassing clouds.13 mph88%30.18 "HgN/A
6:30 pm54 °FPartly sunny.13 mph94%30.18 "HgN/A
6:00 pm55 °FPassing clouds.9 mph88%30.15 "HgN/A
5:30 pm57 °FPassing clouds.9 mph82%30.15 "HgN/A
5:00 pm59 °FPassing clouds.9 mph72%30.15 "HgN/A
4:30 pm59 °FPassing clouds.10 mph72%30.15 "HgN/A
4:00 pm59 °FPassing clouds.13 mph77%30.18 "HgN/A
3:30 pm59 °FScattered clouds.13 mph77%30.18 "HgN/A
3:00 pm59 °FScattered clouds.13 mph72%30.18 "HgN/A
2:30 pm61 °FPassing clouds.12 mph68%30.18 "HgN/A
2:00 pm59 °FPassing clouds.13 mph72%30.18 "HgN/A
1:30 pm59 °FPassing clouds.13 mph72%30.18 "HgN/A
1:00 pm59 °FPassing clouds.13 mph68%30.21 "HgN/A
12:30 pm61 °FPassing clouds.13 mph55%30.21 "HgN/A
12:00 pm59 °FPassing clouds.14 mph63%30.21 "HgN/A
11:30 am59 °FPassing clouds.12 mph68%30.24 "HgN/A
11:00 am57 °FPassing clouds.9 mph77%30.24 "HgN/A
10:30 am55 °FPassing clouds.12 mph82%30.21 "HgN/A
10:00 am55 °FPassing clouds.13 mph82%30.21 "HgN/A
9:30 am55 °FScattered clouds.13 mph82%30.21 "HgN/A
9:00 am54 °FPartly sunny.14 mph88%30.18 "HgN/A
8:30 am54 °FPartly sunny.15 mph88%30.18 "HgN/A
8:00 am52 °FPartly sunny.15 mph88%30.18 "HgN/A
7:30 am52 °FPassing clouds.16 mph88%30.15 "HgN/A
7:00 am52 °FPassing clouds.16 mph88%30.15 "HgN/A
6:30 am52 °FPassing clouds.14 mph88%30.15 "HgN/A
6:00 am52 °FPassing clouds.14 mph88%30.15 "HgN/A
5:30 am50 °FPassing clouds.15 mph94%30.15 "HgN/A
5:00 am50 °FPassing clouds.13 mph94%30.15 "HgN/A
4:30 am50 °FPassing clouds.13 mph88%30.15 "HgN/A
4:00 am48 °FPassing clouds.10 mph94%30.15 "HgN/A
Weather by CustomWeather, © 2017

See weather overviewHow to use our weather pages